"2009-05-16 00:00:00",890234,7.359,93.6,10.28,0.971,14.39,105.3417,12.95,14.21,41.06,0,110.5,13.29,13.74,55.6
"2009-05-16 00:00:30",890235,6.212,81.1,2.416,0.134,11.95,105.3414,12.95,14.01,40.77,0,110.5,13.32,13.74,43.1
"2009-05-16 00:01:00",890236,6.018,83,3.312,0.275,11.94,105.3414,12.95,14.01,40.58,0,110.5,13.33,13.74,45.0
"2009-05-16 00:01:30",890237,6.585,74.69,2.433,0.395,12.26,105.342,12.95,14.12,40.62,0,110.5,13.32,13.75,36.7
"2009-05-16 00:02:00",890238,8.47,87.2,6.503,1.219,16.12,105.3379,12.94,14.28,40.72,0,110.4,13.29,13.73,49.2
"2009-05-16 00:02:30",890239,7.912,89,6.422,1.189,15.91,105.3269,12.91,14.15,40.62,0,110.4,13.28,13.71,51.0
"2009-05-16 00:03:00",890240,6.883,83,5.481,1.009,13.19,105.3124,12.87,14.09,40.62,0,110.5,13.29,13.67,45.0
"2009-05-16 00:03:30",890241,8.2,88.9,9.34,1.636,14.54,105.3133,12.87,14.17,40.77,0,110.5,13.28,13.67,50.9
"2009-05-16 00:04:00",890242,7.519,80.1,8.55,1.231,13.65,105.3189,12.89,13.97,40.68,0,110.5,13.28,13.69,42.1
"2009-05-16 00:04:30",890243,7.07,80.3,8.21,0.972,12.75,105.3165,12.88,14.12,40.96,0,110.4,13.28,13.68,42.3
"2009-05-16 00:05:00",890244,7.065,83.2,1.677,0.208,11.82,105.3,12.84,13.9,40.72,0,110.4,13.32,13.64,45.2
"2009-05-16 00:05:30",890245,6.199,82.5,3.146,0.255,11.93,105.2913,12.82,13.93,40.73,0,110.4,13.32,13.61,44.5
"2009-05-16 00:06:00",890246,6.138,81.7,2.699,0.167,12.17,105.2946,12.83,13.9,40.78,0,110.4,13.32,13.62,43.7
"2009-05-16 00:06:30",890247,6.735,78.6,5.748,0.208,12.3,105.2964,12.83,13.9,40.84,0,110.4,13.32,13.63,40.6
"2009-05-16 00:07:00",890248,7.202,85.5,6.55,1.239,14.35,105.2985,12.84,14.06,41.22,0,110.4,13.29,13.63,47.5
"2009-05-16 00:07:30",890249,7.768,88.1,6.743,1.18,13.79,105.302,12.85,13.94,40.92,0,110.4,13.29,13.64,50.1
"2009-05-16 00:08:00",890250,9.19,101.1,5.34,1.171,16.64,105.3059,12.86,14.11,41.16,0,110.4,13.29,13.65,63.1
"2009-05-16 00:08:30",890251,8.19,95.2,7.704,1.327,14.9,105.3062,12.86,14.07,41.31,0,110.4,13.29,13.65,57.2
"2009-05-16 00:09:00",890252,8.15,93.4,6.923,1.453,14.55,105.3041,12.85,14.05,41.24,0,110.4,13.29,13.65,55.4
"2009-05-16 00:09:30",890253,6.752,86.2,1.366,0.199,11.49,105.295,12.83,13.84,41.08,0,110.4,13.33,13.62,48.2
"2009-05-16 00:10:00",890254,6.344,84.9,1.586,0.257,11.34,105.2818,12.79,13.83,40.99,0,110.4,13.33,13.59,46.9
"2009-05-16 00:10:30",890255,6.145,83.3,2.697,0.457,11.69,105.2759,12.78,13.83,40.97,0,110.4,13.33,13.58,45.3
"2009-05-16 00:11:00",890256,6.41,84.2,2.146,0.318,12,105.2756,12.78,13.83,41.03,0,110.4,13.33,13.57,46.2
"2009-05-16 00:11:30",890257,6.387,87.8,1.685,0.331,12.39,105.2756,12.78,13.82,41.07,0,110.4,13.29,13.57,49.8
"2009-05-16 00:12:00",890258,8.15,86.5,7.354,1.776,15.23,105.2753,12.78,14.01,41.37,0,110.4,13.3,13.57,48.5
"2009-05-16 00:12:30",890259,8.95,91,8.42,1.519,14.97,105.2756,12.78,13.98,41.74,0,110.4,13.3,13.57,53.0
"2009-05-16 00:13:00",890260,9.4,97.7,6.488,1.076,16.99,105.2756,12.78,14.1,41.96,0,110.4,13.29,13.57,59.7
"2009-05-16 00:13:30",890261,9.54,101.6,7.057,1.295,15.67,105.2756,12.78,14.07,41.8,0,110.4,13.29,13.57,63.6
"2009-05-16 00:14:00",890262,8.25,92,6.224,0.914,12.59,105.2756,12.78,13.79,41.37,0,110.4,13.29,13.57,54.0
"2009-05-16 00:14:30",890263,7.738,89.1,2.143,0.284,11.54,105.2688,12.76,13.77,41.28,0,110.4,13.33,13.56,51.1
"2009-05-16 00:15:00",890264,7.809,86.9,4.249,0.393,11.8,105.2519,12.72,13.77,41.22,0,110.4,13.33,13.51,48.9
"2009-05-16 00:15:30",890265,7.615,89.8,2.192,0.234,12.21,105.2424,12.69,13.76,41.18,0,110.4,13.33,13.49,51.8
"2009-05-16 00:16:00",890266,8.47,95.3,7.656,1.528,14.98,105.2418,12.69,13.92,41.4,0,110.4,13.3,13.49,57.3
"2009-05-16 00:16:30",890267,7.817,87.3,8.36,1.479,14.76,105.2418,12.69,13.88,41.42,0,110.4,13.3,13.49,49.3
"2009-05-16 00:17:00",890268,8.97,88,7.524,1.233,16.17,105.2418,12.69,14.04,41.66,0,110.4,13.3,13.49,50.0
"2009-05-16 00:17:30",890269,8.86,92.7,9.75,1.394,15.54,105.2418,12.69,13.94,41.82,0,110.4,13.29,13.49,54.7
"2009-05-16 00:18:00",890270,8.56,97,10.15,1.224,14.14,105.2412,12.69,13.93,41.57,0,110.4,13.29,13.49,59.0
"2009-05-16 00:18:30",890271,6.942,92.1,2.869,0.291,11.75,105.2319,12.67,13.68,41.35,0,110.4,13.33,13.46,54.1
"2009-05-16 00:19:00",890272,6.957,89.4,3.339,0.244,11.68,105.217,12.63,13.69,41.33,0,110.4,13.33,13.42,51.4
"2009-05-16 00:19:30",890273,7.152,84,1.574,0.381,12.15,105.2091,12.61,13.68,41.3,0,110.4,13.33,13.40,46.0
"2009-05-16 00:20:00",890274,7.953,89.1,7.809,1.201,13.47,105.208,12.6,13.66,41.23,0,110.4,13.29,13.40,51.1
"2009-05-16 00:20:30",890275,8.08,91.3,7.707,1.193,15.75,105.208,12.6,13.92,41.54,0,110.4,13.29,13.40,53.3
"2009-05-16 00:21:00",890276,9.07,94.5,6.994,1.192,15.92,105.208,12.6,13.86,41.56,0,110.4,13.29,13.40,56.5
"2009-05-16 00:21:30",890277,8.47,88.7,7.504,1.318,15.33,105.208,12.6,13.83,41.57,0,110.4,13.29,13.40,50.7
"2009-05-16 00:22:00",890278,7.594,80.1,4.712,1.138,13.2,105.208,12.6,13.72,41.46,0,110.4,13.29,13.40,42.1
"2009-05-16 00:22:30",890279,7.496,89.1,5.875,1.445,13.9,105.208,12.6,13.72,41.44,0,110.4,13.29,13.40,51.1
"2009-05-16 00:23:00",890280,6.299,84.4,2.975,0.407,11.86,105.208,12.6,13.64,41.29,0,110.4,13.33,13.40,46.4
"2009-05-16 00:23:30",890281,6.122,82.3,2.458,0.289,12.03,105.2068,12.6,13.61,41.45,0,110.4,13.33,13.40,44.3
"2009-05-16 00:24:00",890282,5.485,78.43,2.388,0.232,12.37,105.2057,12.6,13.62,41.54,0,110.4,13.33,13.39,40.4
"2009-05-16 00:24:30",890283,6.264,74.42,2.515,0.564,12.76,105.2056,12.6,13.66,41.44,0,110.4,13.3,13.39,36.4
"2009-05-16 00:25:00",890284,8.14,90.3,7.082,1.169,17.11,105.2001,12.58,13.84,41.91,0,110.4,13.31,13.38,52.3
"2009-05-16 00:25:30",890285,8.05,87.8,7.432,1.222,16.32,105.2025,12.59,13.9,42.04,0,110.4,13.31,13.39,49.8
"2009-05-16 00:26:00",890286,7.757,81.5,7.314,1.401,14.02,105.2063,12.6,13.7,41.67,0,110.4,13.31,13.40,43.5
"2009-05-16 00:26:30",890287,6.602,76.35,5.877,0.601,12.72,105.2073,12.6,13.75,41.54,0,110.4,13.31,13.40,38.3
"2009-05-16 00:27:00",890288,6.525,82.9,3.705,1.391,13.27,105.2118,12.61,13.67,41.42,0,110.4,13.31,13.41,44.9
"2009-05-16 00:27:30",890289,5.229,81,2.529,0.119,12.14,105.2102,12.61,13.66,41.31,0,110.4,13.34,13.41,43.0
"2009-05-16 00:28:00",890290,5.535,83,4.533,0.206,12.07,105.2099,12.61,13.62,41.27,0,110.4,13.34,13.41,45.0
"2009-05-16 00:28:30",890291,5.534,84.1,2.915,0.178,12.27,105.2045,12.6,13.6,41.29,0,110.4,13.34,13.39,46.1
"2009-05-16 00:29:00",890292,6.172,85.3,3.425,0.838,12.88,105.2014,12.59,13.61,41.3,0,110.4,13.31,13.38,47.3
"2009-05-16 00:29:30",890293,6.43,97.3,8.79,1.127,15.55,105.204,12.59,13.88,41.52,0,110.4,13.31,13.39,59.3
"2009-05-16 00:30:00",890294,6.56,98.9,7.386,1.286,15.71,105.2026,12.59,13.87,41.44,0,110.4,13.31,13.39,60.9
"2009-05-16 00:30:30",890295,6.447,97.8,6.267,1.248,15.34,105.2059,12.6,13.8,41.4,0,110.4,13.31,13.40,59.8
"2009-05-16 00:31:00",890296,4.735,89.4,3.288,0.193,11.53,105.2077,12.6,13.62,41.31,0,110.4,13.35,13.40,51.4
"2009-05-16 00:31:30",890297,4.722,84.7,5.976,1.037,12.47,105.2094,12.61,13.66,41.47,0,110.4,13.31,13.40,46.7
"2009-05-16 00:32:00",890298,5.798,85.4,6.014,0.895,12.99,105.2097,12.61,13.68,41.58,0,110.4,13.31,13.41,47.4
"2009-05-16 00:32:30",890299,6.282,89.7,12.78,1.545,14.49,105.2094,12.61,13.71,41.67,0,110.4,13.31,13.40,51.7
"2009-05-16 00:33:00",890300,4.891,80.1,3.316,0.196,12.49,105.2097,12.61,13.61,41.51,0,110.4,13.34,13.41,42.1
"2009-05-16 00:33:30",890301,5.088,83.8,2.709,0.237,12.53,105.2097,12.61,13.63,41.42,0,110.3,13.35,13.41,45.8
"2009-05-16 00:34:00",890302,6.186,86,9.21,1.304,14.56,105.2097,12.61,13.62,41.5,0,110.3,13.31,13.41,48.0
"2009-05-16 00:34:30",890303,6.098,88.9,8.51,1.398,15.69,105.2097,12.61,13.84,41.85,0,110.3,13.31,13.41,50.9
"2009-05-16 00:35:00",890304,4.938,87.4,9.68,1.445,15.56,105.2097,12.61,13.96,42.04,0,110.3,13.31,13.41,49.4
"2009-05-16 00:35:30",890305,5.129,84.3,4.267,0.891,12.8,105.2097,12.61,13.68,41.7,0,110.3,13.31,13.41,46.3
"2009-05-16 00:36:00",890306,5.791,88.3,8.36,1.243,13.09,105.2097,12.61,13.71,41.59,0,110.3,13.31,13.41,50.3
"2009-05-16 00:36:30",890307,5.005,75.05,3.691,0.182,11.65,105.2097,12.61,13.61,41.42,0,110.3,13.34,13.41,37.1
"2009-05-16 00:37:00",890308,4.99,79.76,4.298,0.541,12.37,105.2097,12.61,13.64,41.43,0,110.3,13.34,13.41,41.8
"2009-05-16 00:37:30",890309,5.942,87.9,7.915,1.412,13.95,105.2097,12.61,13.69,41.56,0,110.3,13.31,13.41,49.9
"2009-05-16 00:38:00",890310,5.743,86.4,7.212,1.334,14.84,105.2097,12.61,13.73,41.59,0,110.3,13.31,13.41,48.4
"2009-05-16 00:38:30",890311,4.417,98.1,4.287,0.351,12.81,105.2097,12.61,13.63,41.57,0,110.3,13.35,13.41,60.1
"2009-05-16 00:39:00",890312,5.801,111.4,7.311,1.389,15.37,105.2097,12.61,13.86,41.79,0,110.3,13.31,13.41,73.4
"2009-05-16 00:39:30",890313,6.447,112,7.232,1.354,16.11,105.2097,12.61,13.92,41.68,0,110.3,13.31,13.41,74.0
"2009-05-16 00:40:00",890314,6.074,109.7,4.65,1.282,13.92,105.2097,12.61,13.75,41.42,0,110.3,13.31,13.41,71.7
"2009-05-16 00:40:30",890315,5.318,109.4,8.72,1.528,13.6,105.2097,12.61,13.69,41.37,0,110.3,13.31,13.41,71.4
"2009-05-16 00:41:00",890316,4.47,104.1,6.665,0.876,12.86,105.2097,12.61,13.8,41.44,0,110.3,13.31,13.41,66.1
"2009-05-16 00:41:30",890317,4.883,93,4.041,0.167,11.59,105.2097,12.61,13.64,41.28,0,110.3,13.35,13.41,55.0
"2009-05-16 00:42:00",890318,4.351,98.3,5.156,0.297,11.89,105.2097,12.61,13.63,41.29,0,110.3,13.35,13.41,60.3
"2009-05-16 00:42:30",890319,4.259,95.3,4.428,0.352,12.31,105.2097,12.61,13.63,41.22,0,110.3,13.35,13.41,57.3
"2009-05-16 00:43:00",890320,4.402,100.7,8.12,1.201,13.85,105.2097,12.61,13.65,41.21,0,110.3,13.32,13.41,62.7
"2009-05-16 00:43:30",890321,5.18,102,6.357,1.302,15.61,105.2097,12.61,13.81,41.35,0,110.3,13.32,13.41,64.0
"2009-05-16 00:44:00",890322,6.052,93.2,7.61,1.317,14.93,105.2097,12.61,13.71,41.26,0,110.3,13.32,13.41,55.2
"2009-05-16 00:44:30",890323,6.57,97.4,5.643,1.289,15,105.2097,12.61,13.83,41.25,0,110.3,13.32,13.41,59.4
"2009-05-16 00:45:00",890324,5.662,94.3,5.585,0.867,13.12,105.2097,12.61,13.83,41.15,0,110.3,13.32,13.41,56.3
"2009-05-16 00:45:30",890325,6.614,95,6.509,1.319,13.16,105.2097,12.61,13.68,41.02,0,110.3,13.32,13.41,57.0
"2009-05-16 00:46:00",890326,6.279,94.3,6.349,1.186,13.42,105.2097,12.61,13.79,41.26,0,110.3,13.32,13.41,56.3
"2009-05-16 00:46:30",890327,5.331,86.1,2.95,0.215,11.72,105.2097,12.61,13.65,41.15,0,110.3,13.35,13.41,48.1
"2009-05-16 00:47:00",890328,5.522,87.9,3.16,0.202,11.99,105.2097,12.61,13.64,41.22,0,110.3,13.35,13.41,49.9
"2009-05-16 00:47:30",890329,5.987,88.1,4.888,0.323,12.39,105.2097,12.61,13.63,41.4,0,110.3,13.36,13.41,50.1
"2009-05-16 00:48:00",890330,6.594,95.3,7.51,0.929,13.69,105.2097,12.61,13.76,41.77,0,110.3,13.32,13.41,57.3
"2009-05-16 00:48:30",890331,9.1,103.7,7.351,1.182,16.61,105.2097,12.61,13.89,41.81,0,110.3,13.32,13.41,65.7
"2009-05-16 00:49:00",890332,8.51,105.3,8.94,1.422,16.25,105.2097,12.61,13.84,41.73,0,110.4,13.32,13.41,67.3
"2009-05-16 00:49:30",890333,6.951,92.4,7.607,1.239,14.67,105.2097,12.61,13.82,41.68,0,110.3,13.32,13.41,54.4
"2009-05-16 00:50:00",890334,6.617,87.5,5.821,1.168,12.86,105.2097,12.61,13.63,41.41,0,110.3,13.32,13.41,49.5
"2009-05-16 00:50:30",890335,6.787,92,7.035,1.266,13.59,105.2097,12.61,13.79,41.52,0,110.3,13.32,13.41,54.0
"2009-05-16 00:51:00",890336,5.485,84.9,8.53,0.342,11.57,105.2083,12.61,13.63,41.37,0,110.3,13.35,13.40,46.9
"2009-05-16 00:51:30",890337,5.619,77.06,4.428,0.284,11.94,105.1985,12.58,13.63,41.53,0,110.3,13.35,13.38,39.1
"2009-05-16 00:52:00",890338,6.517,81.7,2.424,0.296,12.35,105.1897,12.56,13.62,41.73,0,110.3,13.35,13.35,43.7
"2009-05-16 00:52:30",890339,7.703,84.1,7.653,1.42,15.23,105.1855,12.55,13.73,41.95,0,110.3,13.31,13.34,46.1
"2009-05-16 00:53:00",890340,8.22,93.1,7.463,1.328,16.23,105.1813,12.54,13.88,41.89,0,110.3,13.31,13.33,55.1
"2009-05-16 00:53:30",890341,7.888,95.8,5.918,1.535,15.02,105.177,12.53,13.84,41.64,0,110.3,13.31,13.32,57.8
"2009-05-16 00:54:00",890342,7.632,97.3,8.94,1.323,14.13,105.1759,12.52,13.66,41.45,0,110.3,13.31,13.32,59.3
"2009-05-16 00:54:30",890343,6.516,93.9,5.455,0.778,11.96,105.1759,12.52,13.66,41.64,0,110.3,13.31,13.32,55.9
"2009-05-16 00:55:00",890344,6.945,93.8,5.015,1.41,13.46,105.1762,12.52,13.68,41.82,0,110.3,13.31,13.32,55.8
"2009-05-16 00:55:30",890345,6.011,94.8,1.408,0.2,11.69,105.1768,12.52,13.57,41.82,0,110.3,13.35,13.32,56.8
"2009-05-16 00:56:00",890346,5.654,88,2.343,0.305,12.11,105.1765,12.52,13.58,42.04,0,110.3,13.35,13.32,50.0
"2009-05-16 00:56:30",890347,6.78,93.2,8.17,1.367,13.52,105.1768,12.52,13.58,42.18,0,110.3,13.32,13.32,55.2
"2009-05-16 00:57:00",890348,6.469,87.5,9.04,1.048,14.58,105.1783,12.53,13.76,42.57,0,110.3,13.32,13.32,49.5
"2009-05-16 00:57:30",890349,7.667,93.8,7.546,1.344,15.31,105.1818,12.54,13.74,42.43,0,110.3,13.32,13.33,55.8
"2009-05-16 00:58:00",890350,7.526,101.4,7.915,1.405,15.59,105.1821,12.54,13.8,42.34,0,110.3,13.32,13.33,63.4
"2009-05-16 00:58:30",890351,6.119,102,6.838,0.372,12.33,105.1827,12.54,13.73,42.53,0,110.3,13.36,13.34,64.0
"2009-05-16 00:59:00",890352,7.347,108.2,7.672,1.253,13.6,105.1828,12.54,13.65,41.93,0,110.3,13.32,13.34,70.2
"2009-05-16 00:59:30",890353,6.458,106.4,5.96,0.98,12.7,105.1801,12.53,13.69,41.76,0,110.3,13.32,13.33,68.4
"2009-05-16 01:00:00",890354,5.811,107.4,1.248,0.247,11.76,105.1713,12.51,13.55,41.61,0,110.3,13.36,13.31,69.4
"2009-05-16 01:00:30",890355,6.322,109.5,6.133,1.304,13.31,105.1555,12.47,13.58,41.57,0,110.3,13.32,13.27,71.5
"2009-05-16 01:01:00",890356,6.59,102,5.237,0.752,12.66,105.1551,12.47,13.62,41.76,0,110.3,13.32,13.26,64.0
"2009-05-16 01:01:30",890357,8,102.8,7.908,1.477,14.73,105.1539,12.47,13.71,41.83,0,110.3,13.32,13.26,64.8
"2009-05-16 01:02:00",890358,7.943,106.7,8.14,1.084,16.3,105.1548,12.47,13.77,41.84,0,110.3,13.32,13.26,68.7
"2009-05-16 01:02:30",890359,7.506,96.4,5.912,1.377,13.99,105.1551,12.47,13.76,41.85,0,110.3,13.32,13.26,58.4
"2009-05-16 01:03:00",890360,6.974,95.1,3.867,0.811,12,105.1481,12.45,13.5,41.67,0,110.3,13.32,13.25,57.1
"2009-05-16 01:03:30",890361,7.351,97.5,8.28,1.095,13.77,105.1426,12.44,13.65,41.88,0,110.3,13.32,13.23,59.5
"2009-05-16 01:04:00",890362,6.588,93.7,1.202,0.476,11.8,105.1306,12.41,13.48,41.73,0,110.3,13.32,13.20,55.7
"2009-05-16 01:04:30",890363,6.758,93.1,1.207,0.247,11.87,105.124,12.39,13.55,41.8,0,110.3,13.36,13.19,55.1
"2009-05-16 01:05:00",890364,7.872,101.4,6.308,1.252,14.37,105.126,12.39,13.51,41.79,0,110.3,13.32,13.19,63.4
"2009-05-16 01:05:30",890365,7.56,102.2,7.467,1.3,13.99,105.132,12.41,13.62,41.89,0,110.3,13.33,13.21,64.2
"2009-05-16 01:06:00",890366,7.569,104.1,7.054,1.398,14.56,105.1305,12.41,13.64,41.91,0,110.3,13.33,13.20,66.1
"2009-05-16 01:06:30",890367,8.42,102.7,7.402,1.132,16.04,105.1308,12.41,13.7,42.09,0,110.3,13.33,13.20,64.7
"2009-05-16 01:07:00",890368,7.36,89.8,5.518,1.238,13.07,105.1255,12.39,13.45,42.51,0,110.3,13.33,13.19,51.8
"2009-05-16 01:07:30",890369,7.687,89.4,5.823,1.102,12.36,105.1231,12.39,13.53,42.86,0,110.3,13.33,13.18,51.4
"2009-05-16 01:08:00",890370,8.53,94.3,8.23,1.128,13.26,105.1086,12.35,13.42,42.8,0,110.3,13.33,13.15,56.3
"2009-05-16 01:08:30",890371,7.852,98.1,8.19,1.305,13.8,105.1038,12.34,13.46,42.73,0,110.3,13.32,13.13,60.1
"2009-05-16 01:09:00",890372,7.53,92.5,6.107,1.4,14.06,105.1035,12.34,13.55,42.73,0,110.3,13.33,13.13,54.5
"2009-05-16 01:09:30",890373,7.726,89,5.752,1.236,12.54,105.1076,12.35,13.38,42.55,0,110.3,13.32,13.14,51.0
"2009-05-16 01:10:00",890374,8.12,93,8.11,1.243,13.9,105.1076,12.35,13.55,42.86,0,110.3,13.32,13.14,55.0
"2009-05-16 01:10:30",890375,9.19,95,7.356,1.33,15.36,105.1085,12.35,13.53,42.7,0,110.3,13.32,13.15,57.0
"2009-05-16 01:11:00",890376,8.18,88,7.002,1.35,14.45,105.102,12.33,13.6,42.7,0,110.2,13.32,13.13,50.0
"2009-05-16 01:11:30",890377,7.845,86.3,7.045,1.251,13.2,105.0902,12.3,13.39,42.56,0,110.3,13.32,13.10,48.3
"2009-05-16 01:12:00",890378,8.13,90.3,6.532,1.238,13.75,105.0848,12.29,13.44,42.6,0,110.3,13.32,13.08,52.3
"2009-05-16 01:12:30",890379,8.05,90.4,8.17,1.249,13.85,105.0767,12.27,13.49,42.8,0,110.3,13.33,13.06,52.4
"2009-05-16 01:13:00",890380,7.218,86.9,5.178,0.917,12.1,105.0761,12.27,13.3,42.78,0,110.3,13.33,13.06,48.9
"2009-05-16 01:13:30",890381,7.688,85.8,5.358,1.238,13.19,105.0761,12.27,13.41,42.84,0,110.3,13.33,13.06,47.8
"2009-05-16 01:14:00",890382,8.4,83.8,7.574,1.494,13.82,105.0728,12.26,13.35,42.97,0,110.3,13.33,13.05,45.8
"2009-05-16 01:14:30",890383,8.73,84.4,7.002,1.417,14.94,105.0623,12.23,13.49,43.36,0,110.3,13.33,13.03,46.4
"2009-05-16 01:15:00",890384,8.09,87.6,5.361,1.266,14.84,105.0446,12.19,13.41,43.12,0,110.3,13.33,12.98,49.6
"2009-05-16 01:15:30",890385,7.719,86,5.668,1.05,12.49,105.0423,12.18,13.36,43.11,0,110.3,13.33,12.98,48.0
"2009-05-16 01:16:00",890386,8.26,86,5.614,0.951,13.19,105.0423,12.18,13.41,43.11,0,110.3,13.33,12.98,48.0
"2009-05-16 01:16:30",890387,7.955,85.4,6.428,1.466,12.78,105.0423,12.18,13.23,42.84,0,110.3,13.33,12.98,47.4
"2009-05-16 01:17:00",890388,7.352,78.32,2.05,0.405,11.51,105.0409,12.18,13.21,42.87,0,110.3,13.36,12.97,40.3
"2009-05-16 01:17:30",890389,6.911,76.77,4.659,0.282,11.67,105.0324,12.16,13.28,43.33,0,110.3,13.36,12.95,38.8
"2009-05-16 01:18:00",890390,8.43,88.1,7.79,1.361,14.66,105.0135,12.11,13.37,43.17,0,110.3,13.33,12.90,50.1
"2009-05-16 01:18:30",890391,8.74,92.5,5.527,1.258,15.54,105.0085,12.09,13.38,43.29,0,110.3,13.33,12.89,54.5
"2009-05-16 01:19:00",890392,8.05,90.3,6.799,1.242,14.63,105.0085,12.09,13.38,43.38,0,110.3,13.33,12.89,52.3
"2009-05-16 01:19:30",890393,7.497,86.4,7.241,1.399,14.22,105.0085,12.09,13.38,43.44,0,110.3,13.33,12.89,48.4
"2009-05-16 01:20:00",890394,7.396,85.6,9.29,1.765,13.84,105.0085,12.09,13.22,43.59,0,110.3,13.33,12.89,47.6
"2009-05-16 01:20:30",890395,6.265,82.6,2.501,0.575,11.21,105.0048,12.08,13.1,43.87,0,110.3,13.36,12.88,44.6
"2009-05-16 01:21:00",890396,6.987,83.6,1.341,0.214,11.3,104.9966,12.06,13.09,43.63,0,110.3,13.37,12.86,45.6
"2009-05-16 01:21:30",890397,7.83,86.2,7.429,1.244,12.77,104.9771,12.01,13.1,43.54,0,110.3,13.33,12.81,48.2
"2009-05-16 01:22:00",890398,7.772,86.1,6.657,1.113,13.58,104.9746,12.01,13.32,43.69,0,110.3,13.34,12.80,48.1
"2009-05-16 01:22:30",890399,7.588,90.5,6.254,1.208,14.79,104.9746,12.01,13.28,43.73,0,110.3,13.34,12.80,52.5
"2009-05-16 01:23:00",890400,7.971,86.8,6.47,1.042,15.53,104.9743,12.01,13.26,44.01,0,110.3,13.34,12.80,48.8
"2009-05-16 01:23:30",890401,6.976,80.7,7.277,1.085,12.71,104.9732,12,13.15,44.19,0,110.3,13.33,12.80,42.7
"2009-05-16 01:24:00",890402,6.729,83.5,5.803,0.261,11.18,104.9605,11.97,13.16,44.24,0,110.3,13.37,12.77,45.5
"2009-05-16 01:24:30",890403,6.084,86,2.253,0.215,10.98,104.9467,11.94,13.02,43.89,0,110.3,13.36,12.73,48.0
"2009-05-16 01:25:00",890404,6.79,86.6,3.798,0.246,11.27,104.9411,11.92,13.02,43.89,0,110.3,13.36,12.72,48.6
"2009-05-16 01:25:30",890405,7.487,88.3,5.412,1.375,12.89,104.9408,11.92,13,43.92,0,110.3,13.33,12.71,50.3
"2009-05-16 01:26:00",890406,7.44,94.8,7.427,1.222,14,104.9408,11.92,13.25,44.27,0,110.3,13.33,12.71,56.8
"2009-05-16 01:26:30",890407,8.53,92.5,7.198,1.125,16.02,104.9408,11.92,13.24,44.29,0,110.3,13.33,12.71,54.5
"2009-05-16 01:27:00",890408,8.78,101,7.061,0.998,15.94,104.9363,11.91,13.23,44.33,0,110.3,13.33,12.70,63.0
"2009-05-16 01:27:30",890409,7.591,94.1,6.921,1.14,13.43,104.923,11.88,13.23,44.01,0,110.3,13.33,12.67,56.1
"2009-05-16 01:28:00",890410,6.557,89.4,2.638,0.277,10.99,104.9092,11.84,12.95,43.58,0,110.3,13.36,12.63,51.4
"2009-05-16 01:28:30",890411,6.931,87.8,2.552,0.215,10.97,104.9069,11.83,12.93,43.5,0,110.3,13.36,12.63,49.8
"2009-05-16 01:29:00",890412,6.685,87.9,3.369,0.252,11.48,104.9069,11.83,12.92,43.76,0,110.3,13.36,12.63,49.9
"2009-05-16 01:29:30",890413,7.945,97.2,6.692,1.033,13.82,104.9069,11.83,13.08,43.75,0,110.3,13.34,12.63,59.2
"2009-05-16 01:30:00",890414,7.239,95.8,6.931,1.551,13.97,104.9069,11.83,13.03,43.72,0,110.3,13.34,12.63,57.8
"2009-05-16 01:30:30",890415,8.86,103.3,4.902,0.951,16.4,104.9069,11.83,13.16,43.79,0,110.3,13.34,12.63,65.3
"2009-05-16 01:31:00",890416,8.95,105.1,5.348,0.805,16.26,104.9072,11.83,13.15,43.76,0,110.3,13.34,12.63,67.1
"2009-05-16 01:31:30",890417,6.626,92.4,1.632,0.28,11.28,104.9058,11.83,12.92,43.57,0,110.3,13.37,12.62,54.4
"2009-05-16 01:32:00",890418,6.443,90.3,2.463,0.288,10.91,104.9036,11.83,12.87,43.62,0,110.3,13.37,12.62,52.3
"2009-05-16 01:32:30",890419,6.574,86.3,1.374,0.642,11.07,104.8957,11.81,12.87,44.02,0,110.3,13.37,12.60,48.3
"2009-05-16 01:33:00",890420,6.81,88.6,3.654,0.186,11.54,104.8962,11.81,12.85,44.17,0,110.3,13.38,12.60,50.6
"2009-05-16 01:33:30",890421,7.708,93.9,5.945,1.249,14.36,104.8897,11.79,13.04,44.32,0,110.3,13.34,12.58,55.9
"2009-05-16 01:34:00",890422,7.893,93.1,7.149,1.335,14.53,104.8782,11.76,13.04,44.23,0,110.3,13.34,12.55,55.1
"2009-05-16 01:34:30",890423,9.51,102,3.793,0.858,16.65,104.8739,11.75,13.17,43.94,0,110.3,13.34,12.54,64.0
"2009-05-16 01:35:00",890424,8.29,92.9,6.878,1.372,14.25,104.8734,11.75,13.06,44.18,0,110.3,13.34,12.54,54.9
"2009-05-16 01:35:30",890425,7.025,89,1.628,0.219,11.01,104.8734,11.75,12.82,44.03,0,110.3,13.38,12.54,51.0
"2009-05-16 01:36:00",890426,6.932,91.4,2.499,0.284,10.96,104.874,11.75,12.82,44.08,0,110.3,13.38,12.54,53.4
"2009-05-16 01:36:30",890427,6.956,89.4,3.46,0.398,11.33,104.8743,11.75,12.82,43.91,0,110.3,13.38,12.54,51.4
"2009-05-16 01:37:00",890428,8.39,95.6,6.999,1.404,14.38,104.8761,11.76,12.94,43.89,0,110.3,13.34,12.55,57.6
"2009-05-16 01:37:30",890429,7.788,92.7,5.294,1.074,13.65,104.8772,11.76,13.04,43.89,0,110.3,13.34,12.55,54.7
"2009-05-16 01:38:00",890430,8.73,99,5.41,1.143,15.95,104.8769,11.76,13.03,43.85,0,110.3,13.34,12.55,61.0
"2009-05-16 01:38:30",890431,8.94,102.5,3.468,0.735,16.46,104.879,11.76,13.09,43.86,0,110.3,13.34,12.56,64.5
"2009-05-16 01:39:00",890432,7.214,88.5,4.344,0.827,12.06,104.8814,11.77,12.91,43.73,0,110.3,13.34,12.56,50.5
"2009-05-16 01:39:30",890433,6.91,92.8,3.185,0.137,11.14,104.8823,11.77,12.78,43.68,0,110.3,13.38,12.56,54.8
"2009-05-16 01:40:00",890434,6.731,90.2,3.64,0.267,11.34,104.882,11.77,12.78,43.74,0,110.3,13.38,12.56,52.2
"2009-05-16 01:40:30",890435,8.61,92.8,6.536,1.416,13.61,104.8826,11.77,12.81,43.92,0,110.3,13.34,12.57,54.8
"2009-05-16 01:41:00",890436,8.91,91.2,6.155,1.296,14.3,104.8832,11.77,12.94,44.24,0,110.3,13.34,12.57,53.2
"2009-05-16 01:41:30",890437,8.91,93.5,7.373,1.416,14.61,104.8839,11.78,12.99,44.33,0,110.3,13.34,12.57,55.5
"2009-05-16 01:42:00",890438,8.79,95.3,6.406,1.246,15.14,104.8851,11.78,13.03,44.4,0,110.3,13.34,12.57,57.3
"2009-05-16 01:42:30",890439,8.48,93.9,7.976,1.237,14.48,104.8815,11.77,13.03,44.65,0,110.3,13.33,12.56,55.9
"2009-05-16 01:43:00",890440,7.839,89.3,6.623,1.542,12.49,104.8745,11.75,12.78,44.4,0,110.3,13.33,12.54,51.3
"2009-05-16 01:43:30",890441,6.604,83.6,2.673,0.29,11.17,104.8664,11.73,12.76,44.69,0,110.3,13.37,12.52,45.6
"2009-05-16 01:44:00",890442,7.308,87,0.686,0.114,11.5,104.8611,11.72,12.76,44.23,0,110.3,13.37,12.51,49.0
"2009-05-16 01:44:30",890443,8.71,95.4,7.087,1.334,15.07,104.862,11.72,12.98,44.16,0,110.3,13.34,12.51,57.4
"2009-05-16 01:45:00",890444,9.18,95.2,6.391,1.233,15.24,104.8605,11.72,13.01,44.07,0,110.3,13.34,12.51,57.2
"2009-05-16 01:45:30",890445,8.13,89.6,6.272,1.212,13.27,104.8641,11.72,12.97,44.02,0,110.3,13.34,12.52,51.6
"2009-05-16 01:46:00",890446,9.3,94.6,6.084,1.091,15.06,104.8641,11.72,12.94,44.05,0,110.3,13.34,12.52,56.6
"2009-05-16 01:46:30",890447,8.73,92.2,6.56,1.321,13.72,104.8673,11.73,12.91,44.09,0,110.3,13.34,12.53,54.2
"2009-05-16 01:47:00",890448,7.315,85.1,0.875,0.102,11.35,104.8673,11.73,12.74,43.93,0,110.3,13.38,12.53,47.1
"2009-05-16 01:47:30",890449,7.376,83.1,1.503,0.061,11.51,104.8697,11.74,12.73,43.93,0,110.3,13.38,12.53,45.1
"2009-05-16 01:48:00",890450,8.3,92.4,6.75,1.279,13.94,104.8697,11.74,12.89,44.37,0,110.3,13.34,12.53,54.4
"2009-05-16 01:48:30",890451,9.22,94.1,6.03,1.299,15.08,104.8733,11.75,12.97,44.65,0,110.3,13.34,12.54,56.1
"2009-05-16 01:49:00",890452,9.62,97.3,6.132,1.156,15.28,104.8724,11.75,12.91,44.46,0,110.3,13.35,12.54,59.3
"2009-05-16 01:49:30",890453,7.803,88.4,3.353,0.66,11.53,104.8639,11.72,12.84,44.4,0,110.3,13.35,12.52,50.4